Powrót do katalogu

FENGYUN 1C DEB

AktywnyPO
NORAD 30291·DEBRIS·🇨🇳 China

Wystrzelony May 10, 1999 z Taiyuan Satellite Launch Center

Loading…

Następne Przeloty (najbliższe 24 godziny)

TLE

ŚwieżeSource: Space-Track

Epoka: Sep 14, 2026, 01:45 UTC

1 30291U 99025ZC  26257.07309044  .00006416  00000-0  12348-2 0  9996
2 30291  97.2130 115.0822 0098366 220.3861 294.5745 14.60784841 17076

Śledź FENGYUN 1C DEB w czasie rzeczywistym z AllMySat

Download on the App Store